Погода в Ранчи

Индия     23°21′54″N   85°20′30″E
темп.,
°C
ветер,
м/с
пор.,
м/с
влажн.,
%
обл.,
%
осадки,
мм/ч
давл.,
гПа
погр.,
м
1 марта, пн
пн123:30+22сз23210 0.0 101124
02:30+21ссз23240 0.0 101023
05:30+19с44270 0.0 101159
08:30+27с34220 0.0 1013416
11:30+32сз46140 0.0 10133041
14:30+33сз67120 0.0 10093330
17:30+29ссз47180 0.0 1009157
20:30+24с34230 0.0 101236
2 марта, вт
вт223:30+22с23270 0.0 101223
02:30+20ссв33300 0.0 101226
05:30+19ссв33300 0.0 101225
08:30+27ссв45200 0.0 1014383
11:30+32св24150 0.0 10122560
14:30+33сз55120 0.0 10082991
17:30+29ссз34140 0.0 100891
20:30+23ссз59150 0.0 1011128
3 марта, ср
ср323:30+20ссз511180 0.0 1012163
02:30+17с23200 0.0 101124
05:30+16с12220 0.0 101123
08:30+25с23120 0.0 1014392
11:30+31сз4570 0.0 10121718
14:30+33сз5660 0.0 10092575
17:30+28ссз4790 0.0 1009149
20:30+22ссз45120 0.0 101274
4 марта, чт
чт423:30+19ссз34150 0.0 101241
02:30+17с12180 0.0 101123
05:30+17сз12160 0.0 101123
08:30+27зсз22100 0.0 1013333
11:30+32зсз3560 0.0 10112390
14:30+34з4650 0.0 10073046
17:30+29ссз2370 0.0 100726
20:30+23сз34100 0.0 101025
5 марта, пт
пт523:30+21ссв23140 0.0 101123
02:30+19ссз01170 0.0 101023
05:30+19зюз11180 0.0 101023
08:30+28ююз34120 0.0 1012348
11:30+33зюз5760 0.0 10102351
14:30+35зюз6860 0.0 10064574
17:30+30юз4880 0.0 1005159
20:30+23сз33120 0.0 100828